"2016-02-22 00:00:00",1395291,5.162,122.1,6.944,1.284,6.755,101.3479,2.739,3.915,38.79,0,109.9,13.23,3.50,84.1
"2016-02-22 00:00:30",1395292,5.863,117.4,8.14,1.493,7.703,101.3411,2.721,4.022,38.86,0,109.9,13.23,3.48,79.4
"2016-02-22 00:01:00",1395293,6,116.3,6.587,1.309,7.978,101.3377,2.713,3.973,38.86,0,109.9,13.23,3.47,78.3
"2016-02-22 00:01:30",1395294,5.499,118.1,5.361,1.408,8.18,101.3298,2.692,3.999,39.03,0,109.9,13.23,3.45,80.1
"2016-02-22 00:02:00",1395295,5.737,112.3,8.24,1.256,7.722,101.323,2.675,3.907,39.08,0,109.9,13.23,3.44,74.3
"2016-02-22 00:02:30",1395296,5.588,119.2,6.96,1.197,6.32,101.3228,2.674,3.939,39.12,0,109.9,13.23,3.44,81.2
"2016-02-22 00:03:00",1395297,6.699,121.3,7.554,1.352,7.629,101.3225,2.674,3.925,38.87,0,110,13.23,3.44,83.3
"2016-02-22 00:03:30",1395298,5.962,119.8,6.952,1.26,7.134,101.3225,2.674,3.967,38.88,0,110,13.23,3.44,81.8
"2016-02-22 00:04:00",1395299,6.138,116.2,7.841,1.414,7.868,101.3225,2.674,3.875,38.76,0,109.9,13.23,3.44,78.2
"2016-02-22 00:04:30",1395300,5.878,117.4,6.868,1.354,7.383,101.3225,2.674,3.905,38.78,0,110,13.23,3.44,79.4
"2016-02-22 00:05:00",1395301,5.785,118.2,7.514,1.39,7.615,101.3222,2.673,3.948,38.79,0,110,13.23,3.43,80.2
"2016-02-22 00:05:30",1395302,5.689,111.6,5.996,1.307,6.237,101.3194,2.666,3.857,38.72,0,109.9,13.23,3.43,73.6
"2016-02-22 00:06:00",1395303,5.995,116,6.888,1.388,7.001,101.3148,2.654,3.904,38.84,0,109.9,13.23,3.42,78.0
"2016-02-22 00:06:30",1395304,5.479,112.5,7.012,1.431,7.19,101.3095,2.641,3.887,38.85,0,109.9,13.23,3.40,74.5
"2016-02-22 00:07:00",1395305,5.364,111.6,7.742,1.361,7.641,101.3067,2.633,3.93,38.86,0,109.9,13.23,3.39,73.6
"2016-02-22 00:07:30",1395306,5.488,110.7,6.543,1.381,7.584,101.3058,2.631,3.888,38.84,0,109.9,13.24,3.39,72.7
"2016-02-22 00:08:00",1395307,5.701,114.2,7.16,1.314,6.875,101.3098,2.641,3.873,38.84,0,109.9,13.24,3.40,76.2
"2016-02-22 00:08:30",1395308,6.275,114.7,7.754,1.386,7.52,101.3042,2.627,3.856,38.84,0,109.9,13.24,3.39,76.7
"2016-02-22 00:09:00",1395309,5.507,114,7.565,1.271,6.944,101.2974,2.61,3.863,38.88,0,109.9,13.24,3.37,76.0
"2016-02-22 00:09:30",1395310,5.674,114.5,6.372,1.39,7.498,101.294,2.601,3.87,38.94,0,109.9,13.24,3.36,76.5
"2016-02-22 00:10:00",1395311,6.352,115.9,7.631,1.298,8.67,101.2974,2.61,3.889,38.96,0,109.9,13.24,3.37,77.9
"2016-02-22 00:10:30",1395312,5.818,113.6,7.447,1.288,7.112,101.298,2.611,3.801,38.94,0,109.9,13.24,3.37,75.6
"2016-02-22 00:11:00",1395313,5.93,116.1,8.22,1.365,7.569,101.2997,2.616,3.853,38.98,0,109.9,13.24,3.38,78.1
"2016-02-22 00:11:30",1395314,5.941,118.7,7.766,1.424,7.85,101.2938,2.6,3.871,38.99,0,109.9,13.23,3.36,80.7
"2016-02-22 00:12:00",1395315,5.819,116.9,7.396,1.378,7.846,101.2873,2.584,3.859,38.97,0,109.9,13.23,3.34,78.9
"2016-02-22 00:12:30",1395316,5.257,116.9,7.969,1.397,7.111,101.2871,2.583,3.804,38.94,0,109.9,13.23,3.34,78.9
"2016-02-22 00:13:00",1395317,5.52,122.1,6.644,1.424,7.606,101.2795,2.564,3.82,39.07,0,109.9,13.23,3.33,84.1
"2016-02-22 00:13:30",1395318,5.346,119.7,7.322,1.452,7.95,101.2727,2.547,3.81,39.1,0,109.9,13.23,3.31,81.7
"2016-02-22 00:14:00",1395319,5.291,118.7,7.276,1.366,7.161,101.2756,2.554,3.733,39.02,0,109.9,13.23,3.32,80.7
"2016-02-22 00:14:30",1395320,5.642,119.2,6.857,1.322,7.686,101.2767,2.557,3.81,39.08,0,109.9,13.23,3.32,81.2
"2016-02-22 00:15:00",1395321,5.099,115.8,7.363,1.444,7.359,101.2778,2.56,3.719,38.98,0,109.9,13.23,3.32,77.8
"2016-02-22 00:15:30",1395322,4.948,119.9,7.259,1.373,7.887,101.2711,2.542,3.793,39.1,0,109.9,13.23,3.30,81.9
"2016-02-22 00:16:00",1395323,4.66,117.4,6.637,1.302,7.072,101.2649,2.527,3.789,39.14,0,109.9,13.23,3.29,79.4
"2016-02-22 00:16:30",1395324,5.409,119.6,7.128,1.3,6.759,101.2598,2.514,3.719,39.13,0,109.9,13.24,3.27,81.6
"2016-02-22 00:17:00",1395325,4.914,118.3,7.133,1.497,6.643,101.2488,2.486,3.675,39.19,0,109.9,13.24,3.25,80.3
"2016-02-22 00:17:30",1395326,4.711,116.8,5.79,1.312,6.844,101.2494,2.487,3.823,39.32,0,109.9,13.24,3.25,78.8
"2016-02-22 00:18:00",1395327,5.078,117.9,8.96,1.442,7.495,101.2482,2.484,3.695,39.18,0,109.9,13.25,3.24,79.9
"2016-02-22 00:18:30",1395328,4.854,120.4,6.693,1.339,6.982,101.246,2.478,3.701,39.27,0,109.9,13.25,3.24,82.4
"2016-02-22 00:19:00",1395329,5.506,122.8,7.244,1.372,7.898,101.2367,2.455,3.691,39.24,0,109.9,13.25,3.22,84.8
"2016-02-22 00:19:30",1395330,5.477,119.9,7.032,1.386,7.332,101.2217,2.416,3.675,39.31,0,109.9,13.25,3.18,81.9
"2016-02-22 00:20:00",1395331,5.598,119.9,7.357,1.412,7.049,101.2197,2.411,3.65,39.53,0,109.9,13.25,3.17,81.9
"2016-02-22 00:20:30",1395332,5.821,117.4,6.534,1.283,7.415,101.2209,2.414,3.658,39.65,0,109.9,13.25,3.17,79.4
"2016-02-22 00:21:00",1395333,5.965,117.1,6.894,1.368,7.857,101.2161,2.402,3.672,39.69,0,109.9,13.25,3.16,79.1
"2016-02-22 00:21:30",1395334,5.755,114,7.377,1.356,7.903,101.2059,2.376,3.658,39.76,0,109.9,13.25,3.14,76.0
"2016-02-22 00:22:00",1395335,5.694,113.5,7.506,1.344,7.894,101.1937,2.345,3.647,39.81,0,109.9,13.25,3.11,75.5
"2016-02-22 00:22:30",1395336,5.141,109.4,6.437,1.377,6.423,101.1872,2.329,3.556,39.67,0,109.9,13.25,3.09,71.4
"2016-02-22 00:23:00",1395337,5.335,109.6,7.578,1.368,7.857,101.187,2.328,3.661,39.96,0,109.9,13.25,3.09,71.6
"2016-02-22 00:23:30",1395338,5.59,113.8,8.81,1.448,7.809,101.1774,2.303,3.544,39.81,0,109.9,13.25,3.06,75.8
"2016-02-22 00:24:00",1395339,5.173,113.2,7.816,1.355,7.147,101.1658,2.274,3.594,39.75,0,109.9,13.25,3.03,75.2
"2016-02-22 00:24:30",1395340,5.667,116.2,6.931,1.358,8.01,101.1536,2.243,3.574,39.73,0,109.9,13.25,3.00,78.2
"2016-02-22 00:25:00",1395341,5.409,112,7.024,1.349,7.167,101.1533,2.242,3.496,39.71,0,109.9,13.25,3.00,74.0
"2016-02-22 00:25:30",1395342,5.911,116,7.213,1.391,7.722,101.1533,2.242,3.504,39.75,0,109.9,13.25,3.00,78.0
"2016-02-22 00:26:00",1395343,5.683,115.3,7.608,1.398,7.394,101.1516,2.238,3.519,39.82,0,109.9,13.25,3.00,77.3
"2016-02-22 00:26:30",1395344,5.602,113.9,7.497,1.327,7.331,101.1398,2.207,3.476,39.84,0,109.9,13.25,2.97,75.9
"2016-02-22 00:27:00",1395345,5.794,114.6,6.839,1.374,7.311,101.1234,2.166,3.504,39.92,0,109.9,13.25,2.93,76.6
"2016-02-22 00:27:30",1395346,6.535,118.7,6.482,1.231,8.52,101.1194,2.155,3.438,39.92,0,109.9,13.25,2.92,80.7
"2016-02-22 00:28:00",1395347,5.423,112.1,6.46,1.255,6.335,101.1194,2.155,3.379,39.92,0,109.9,13.26,2.92,74.1
"2016-02-22 00:28:30",1395348,6.641,117.1,7.56,1.321,8.26,101.1194,2.155,3.439,40.04,0,109.9,13.25,2.92,79.1
"2016-02-22 00:29:00",1395349,5.653,108.7,6.705,1.222,6.604,101.1194,2.155,3.391,40.05,0,109.9,13.25,2.92,70.7
"2016-02-22 00:29:30",1395350,6.569,115.5,6.775,1.322,8.78,101.1191,2.155,3.519,40.24,0,109.9,13.25,2.91,77.5
"2016-02-22 00:30:00",1395351,5.788,115.3,7.725,1.353,7.601,101.1115,2.135,3.406,40.23,0,109.9,13.25,2.89,77.3
"2016-02-22 00:30:30",1395352,5.806,115.3,7.359,1.372,7.407,101.0965,2.097,3.391,40.25,0,109.9,13.25,2.86,77.3
"2016-02-22 00:31:00",1395353,5.188,113.7,6.923,1.391,6.616,101.0883,2.076,3.312,40.22,0,109.9,13.25,2.84,75.7
"2016-02-22 00:31:30",1395354,5.373,114.9,7.205,1.37,7.618,101.0878,2.075,3.392,40.35,0,109.9,13.25,2.83,76.9
"2016-02-22 00:32:00",1395355,5.782,113.8,7.104,1.402,7.896,101.0883,2.076,3.359,40.33,0,109.9,13.25,2.84,75.8
"2016-02-22 00:32:30",1395356,5.471,113.7,6.856,1.381,7.449,101.0912,2.083,3.384,40.35,0,109.9,13.25,2.84,75.7
"2016-02-22 00:33:00",1395357,6.24,114.8,7.901,1.383,8.21,101.0935,2.089,3.35,40.33,0,109.8,13.25,2.85,76.8
"2016-02-22 00:33:30",1395358,5.382,110.5,6.322,1.296,6.291,101.087,2.073,3.27,40.24,0,109.8,13.26,2.83,72.5
"2016-02-22 00:34:00",1395359,5.569,115.8,6.993,1.398,7.356,101.0805,2.056,3.328,40.37,0,109.9,13.26,2.82,77.8
"2016-02-22 00:34:30",1395360,5.605,114.3,6.867,1.429,7.816,101.08,2.055,3.314,40.35,0,109.8,13.26,2.81,76.3
"2016-02-22 00:35:00",1395361,6.019,115.6,7.272,1.368,7.63,101.0693,2.027,3.317,40.38,0,109.8,13.26,2.79,77.6
"2016-02-22 00:35:30",1395362,5.658,111.9,6.839,1.292,7.316,101.0693,2.028,3.282,40.36,0,109.8,13.26,2.79,73.9
"2016-02-22 00:36:00",1395363,6.301,114.4,7.107,1.378,8.07,101.0701,2.03,3.278,40.41,0,109.8,13.26,2.79,76.4
"2016-02-22 00:36:30",1395364,5.798,111.5,6.597,1.269,6.974,101.0648,2.016,3.302,40.44,0,109.8,13.26,2.78,73.5
"2016-02-22 00:37:00",1395365,6.665,115.5,7.032,1.354,8.36,101.0529,1.986,3.323,40.47,0,109.8,13.26,2.74,77.5
"2016-02-22 00:37:30",1395366,5.996,114.5,7.08,1.314,7.804,101.043,1.96,3.243,40.45,0,109.8,13.26,2.72,76.5
"2016-02-22 00:38:00",1395367,6.493,118.3,6.831,1.316,8.62,101.0371,1.945,3.29,40.54,0,109.8,13.26,2.70,80.3
"2016-02-22 00:38:30",1395368,6.187,114.5,6.868,1.368,6.925,101.0408,1.955,3.183,40.45,0,109.8,13.26,2.71,76.5
"2016-02-22 00:39:00",1395369,6.66,115,7.085,1.37,7.477,101.0411,1.956,3.204,40.46,0,109.8,13.26,2.71,77.0
"2016-02-22 00:39:30",1395370,6.866,112.8,6.795,1.443,7.135,101.0343,1.938,3.164,40.49,0,109.8,13.26,2.70,74.8
"2016-02-22 00:40:00",1395371,7.108,111.8,7.062,1.422,7.496,101.0227,1.909,3.164,40.6,0,109.8,13.26,2.67,73.8
"2016-02-22 00:40:30",1395372,7.411,113.4,7.128,1.345,8.27,101.0162,1.892,3.211,40.77,0,109.8,13.27,2.65,75.4
"2016-02-22 00:41:00",1395373,7.569,113.6,6.704,1.299,8.41,101.0117,1.881,3.178,40.87,0,109.8,13.27,2.64,75.6
"2016-02-22 00:41:30",1395374,7.361,113.3,6.764,1.313,8.65,101.0111,1.879,3.208,40.99,0,109.8,13.27,2.64,75.3
"2016-02-22 00:42:00",1395375,6.985,113,6.844,1.425,8.11,101.0038,1.861,3.114,40.97,0,109.8,13.27,2.62,75.0
"2016-02-22 00:42:30",1395376,6.208,109.9,6.709,1.35,6.89,100.988,1.82,3.112,40.99,0,109.8,13.27,2.58,71.9
"2016-02-22 00:43:00",1395377,5.439,108.2,4.483,1.102,5.339,100.984,1.81,2.905,40.75,0,109.8,13.27,2.57,70.2
"2016-02-22 00:43:30",1395378,6.565,113.2,7.205,1.435,7.771,100.984,1.81,3.123,41.03,0,109.8,13.27,2.57,75.2
"2016-02-22 00:44:00",1395379,6.776,114,6.961,1.351,8.58,100.984,1.81,3.127,41.15,0,109.8,13.27,2.57,76.0
"2016-02-22 00:44:30",1395380,6.541,114,7.072,1.329,8.52,100.9778,1.794,3.125,41.19,0,109.8,13.27,2.55,76.0
"2016-02-22 00:45:00",1395381,6.787,114.8,6.857,1.301,8.3,100.9679,1.769,3.056,41.17,0,109.8,13.26,2.53,76.8
"2016-02-22 00:45:30",1395382,5.931,111.3,6.696,1.33,6.306,100.9592,1.747,3.013,41.11,0,109.8,13.26,2.50,73.3
"2016-02-22 00:46:00",1395383,6.273,114.4,7.58,1.384,7.433,100.9507,1.725,3.036,41.14,0,109.8,13.26,2.48,76.4
"2016-02-22 00:46:30",1395384,7.001,115.1,6.881,1.341,8.07,100.9501,1.724,3.009,41.12,0,109.8,13.26,2.48,77.1
"2016-02-22 00:47:00",1395385,6.803,113.3,7.09,1.406,7.643,100.9501,1.724,2.951,41.17,0,109.8,13.26,2.48,75.3
"2016-02-22 00:47:30",1395386,7.298,116,6.84,1.337,8.17,100.9496,1.722,3.029,41.22,0,109.8,13.26,2.48,78.0
"2016-02-22 00:48:00",1395387,6.74,115.2,6.949,1.396,7.579,100.9388,1.695,2.953,41.15,0,109.8,13.26,2.45,77.2
"2016-02-22 00:48:30",1395388,6.774,119.3,7.165,1.313,8.12,100.9337,1.682,3.006,41.19,0,109.8,13.26,2.44,81.3
"2016-02-22 00:49:00",1395389,6.264,117.3,7.059,1.352,7.364,100.9335,1.681,2.951,41.15,0,109.8,13.26,2.44,79.3
"2016-02-22 00:49:30",1395390,6.225,117.1,7.092,1.38,7.382,100.921,1.649,2.939,41.14,0,109.8,13.27,2.41,79.1
"2016-02-22 00:50:00",1395391,5.947,115.9,6.642,1.314,6.551,100.9248,1.659,2.852,41.02,0,109.8,13.27,2.42,77.9
"2016-02-22 00:50:30",1395392,6.507,118,7.022,1.353,7.644,100.9265,1.663,2.95,41.11,0,109.8,13.28,2.42,80.0
"2016-02-22 00:51:00",1395393,6.939,119.2,6.382,1.286,7.939,100.9285,1.668,2.943,41.11,0,109.8,13.28,2.43,81.2
"2016-02-22 00:51:30",1395394,6.773,118,6.882,1.343,8.05,100.9293,1.67,2.944,41.11,0,109.8,13.28,2.43,80.0
"2016-02-22 00:52:00",1395395,6.373,116.4,7.253,1.371,7.373,100.9223,1.652,2.966,41.15,0,109.8,13.28,2.41,78.4
"2016-02-22 00:52:30",1395396,6.691,115.9,7.287,1.405,7.632,100.9178,1.641,2.885,41.11,0,109.8,13.28,2.40,77.9
"2016-02-22 00:53:00",1395397,6.068,110.7,6.914,1.321,6.522,100.9098,1.621,2.796,41.12,0,109.8,13.28,2.38,72.7
"2016-02-22 00:53:30",1395398,6.661,113,6.883,1.369,8.24,100.9079,1.616,2.925,41.3,0,109.8,13.28,2.37,75.0
"2016-02-22 00:54:00",1395399,6.555,111.3,6.91,1.37,7.444,100.9022,1.601,2.861,41.31,0,109.8,13.28,2.36,73.3
"2016-02-22 00:54:30",1395400,6.854,110.7,6.993,1.366,7.944,100.9042,1.606,2.869,41.52,0,109.8,13.28,2.36,72.7
"2016-02-22 00:55:00",1395401,6.864,112.8,6.913,1.338,8.41,100.9065,1.612,2.92,41.66,0,109.8,13.28,2.37,74.8
"2016-02-22 00:55:30",1395402,6.281,109.7,7.069,1.388,7.525,100.9062,1.612,2.864,41.6,0,109.8,13.28,2.37,71.7
"2016-02-22 00:56:00",1395403,5.931,108.6,6.905,1.355,6.724,100.9082,1.617,2.746,41.52,0,109.8,13.28,2.37,70.6
"2016-02-22 00:56:30",1395404,6.121,110.7,7.241,1.396,7.426,100.9011,1.599,2.806,41.59,0,109.7,13.28,2.36,72.7
"2016-02-22 00:57:00",1395405,6.595,116.9,6.806,1.291,8.17,100.8932,1.578,2.854,41.59,0,109.8,13.28,2.34,78.9
"2016-02-22 00:57:30",1395406,6.497,115.7,7.07,1.356,8.34,100.8881,1.565,2.851,41.53,0,109.8,13.29,2.32,77.7
"2016-02-22 00:58:00",1395407,6.634,112.8,7.183,1.377,7.282,100.8836,1.554,2.8,41.55,0,109.8,13.28,2.31,74.8
"2016-02-22 00:58:30",1395408,6.037,109.1,6.665,1.314,6.782,100.8805,1.546,2.794,41.56,0,109.8,13.28,2.30,71.1
"2016-02-22 00:59:00",1395409,6.24,110.2,7.068,1.373,7.01,100.88,1.545,2.69,41.49,0,109.8,13.28,2.30,72.2
"2016-02-22 00:59:30",1395410,5.606,108.2,6.547,1.206,6.389,100.8814,1.548,2.721,41.53,0,109.8,13.29,2.31,70.2
"2016-02-22 01:00:00",1395411,6.477,115.7,6.838,1.304,8.22,100.8811,1.548,2.842,41.7,0,109.8,13.29,2.30,77.7
"2016-02-22 01:00:30",1395412,6.566,115.6,6.699,1.279,8.24,100.8823,1.55,2.772,41.68,0,109.8,13.29,2.31,77.6
"2016-02-22 01:01:00",1395413,6.743,113.8,6.555,1.308,8.3,100.8826,1.551,2.784,41.69,0,109.8,13.28,2.31,75.8
"2016-02-22 01:01:30",1395414,5.631,107.7,6.466,1.235,6.213,100.8826,1.551,2.703,41.64,0,109.8,13.28,2.31,69.7
"2016-02-22 01:02:00",1395415,6.386,111.7,7.116,1.361,7.11,100.8789,1.542,2.672,41.61,0,109.8,13.28,2.30,73.7
"2016-02-22 01:02:30",1395416,5.934,114.2,8.17,1.323,7.471,100.8752,1.532,2.773,41.73,0,109.8,13.28,2.29,76.2
"2016-02-22 01:03:00",1395417,6.175,117.3,7.2,1.342,7.297,100.8701,1.519,2.743,41.68,0,109.8,13.28,2.28,79.3
"2016-02-22 01:03:30",1395418,5.795,113.6,6.74,1.338,6.401,100.8659,1.509,2.731,41.72,0,109.8,13.28,2.27,75.6
"2016-02-22 01:04:00",1395419,6.311,113.5,7.523,1.379,7.325,100.8627,1.501,2.721,41.71,0,109.8,13.28,2.26,75.5
"2016-02-22 01:04:30",1395420,6.545,113.2,6.944,1.383,7.562,100.8636,1.503,2.693,41.85,0,109.8,13.28,2.26,75.2
"2016-02-22 01:05:00",1395421,6.395,111.3,7.133,1.381,7.075,100.8588,1.491,2.67,41.95,0,109.8,13.28,2.25,73.3
"2016-02-22 01:05:30",1395422,6.558,111.5,6.972,1.374,7.692,100.8497,1.467,2.737,42.07,0,109.8,13.28,2.22,73.5
"2016-02-22 01:06:00",1395423,6.225,108.9,7.035,1.36,6.883,100.8486,1.465,2.666,42.04,0,109.8,13.28,2.22,70.9
"2016-02-22 01:06:30",1395424,6.004,110.5,7.168,1.353,6.708,100.8486,1.465,2.705,42.13,0,109.8,13.29,2.22,72.5
"2016-02-22 01:07:00",1395425,5.746,112.1,7.388,1.362,6.72,100.8486,1.465,2.638,41.99,0,109.8,13.29,2.22,74.1
"2016-02-22 01:07:30",1395426,5.855,114.9,7.23,1.388,7.256,100.848,1.463,2.735,41.98,0,109.8,13.29,2.22,76.9
"2016-02-22 01:08:00",1395427,5.9,113.3,6.993,1.343,7.087,100.8398,1.442,2.695,41.96,0,109.8,13.29,2.20,75.3
"2016-02-22 01:08:30",1395428,5.959,112.3,6.868,1.34,6.946,100.8328,1.424,2.728,42.03,0,109.7,13.29,2.18,74.3
"2016-02-22 01:09:00",1395429,5.913,113.2,6.956,1.307,6.418,100.8316,1.421,2.561,41.84,0,109.7,13.29,2.18,75.2
"2016-02-22 01:09:30",1395430,6.793,116.3,6.518,1.333,8.15,100.8263,1.408,2.689,41.92,0,109.7,13.29,2.16,78.3
"2016-02-22 01:10:00",1395431,6.104,112.2,7.191,1.315,6.99,100.8184,1.387,2.666,41.92,0,109.7,13.29,2.14,74.2
"2016-02-22 01:10:30",1395432,6.584,115.6,7.078,1.349,8.08,100.8181,1.387,2.7,41.94,0,109.7,13.29,2.14,77.6
"2016-02-22 01:11:00",1395433,6.476,117.4,6.966,1.373,7.892,100.8226,1.398,2.712,41.96,0,109.7,13.29,2.16,79.4
"2016-02-22 01:11:30",1395434,5.654,111.9,6.68,1.308,6.434,100.8238,1.401,2.6,41.89,0,109.7,13.29,2.16,73.9
"2016-02-22 01:12:00",1395435,6.161,114.6,7.112,1.376,7.141,100.8235,1.401,2.585,41.87,0,109.7,13.29,2.16,76.6
"2016-02-22 01:12:30",1395436,5.991,114.2,7.17,1.415,6.772,100.821,1.394,2.546,41.86,0,109.7,13.29,2.15,76.2
"2016-02-22 01:13:00",1395437,6.12,115,7.061,1.381,7.406,100.8139,1.376,2.613,41.96,0,109.7,13.3,2.13,77.0
"2016-02-22 01:13:30",1395438,6.355,116.8,6.771,1.306,8.13,100.8097,1.365,2.644,42.05,0,109.7,13.3,2.12,78.8
"2016-02-22 01:14:00",1395439,6.267,117.9,6.838,1.335,8.23,100.8122,1.372,2.649,42.07,0,109.7,13.3,2.13,79.9
"2016-02-22 01:14:30",1395440,5.088,113.4,6.504,1.204,6.14,100.8074,1.36,2.563,42.11,0,109.7,13.3,2.12,75.4
"2016-02-22 01:15:00",1395441,5.149,112.6,6.364,1.266,5.926,100.8007,1.342,2.477,42.08,0,109.8,13.3,2.10,74.6
"2016-02-22 01:15:30",1395442,5.511,115.3,6.981,1.343,7.02,100.8004,1.342,2.565,42.24,0,109.7,13.3,2.10,77.3
"2016-02-22 01:16:00",1395443,6.353,116.9,6.741,1.346,8.15,100.801,1.343,2.627,42.36,0,109.7,13.29,2.10,78.9
"2016-02-22 01:16:30",1395444,6.663,116.6,6.645,1.284,8.07,100.8007,1.342,2.647,42.36,0,109.7,13.3,2.10,78.6
"2016-02-22 01:17:00",1395445,6.263,114.9,6.583,1.356,7.451,100.8004,1.342,2.55,42.27,0,109.7,13.3,2.10,76.9
"2016-02-22 01:17:30",1395446,5.917,115.3,6.917,1.327,6.118,100.7992,1.339,2.476,42.17,0,109.7,13.3,2.10,77.3
"2016-02-22 01:18:00",1395447,5.73,113.3,6.09,1.183,5.94,100.8001,1.341,2.516,42.16,0,109.7,13.3,2.10,75.3
"2016-02-22 01:18:30",1395448,7.017,119.1,6.59,1.276,8.74,100.8001,1.341,2.603,42.24,0,109.7,13.29,2.10,81.1
"2016-02-22 01:19:00",1395449,6.578,117.6,6.876,1.35,8.43,100.7984,1.337,2.612,42.25,0,109.7,13.29,2.09,79.6
"2016-02-22 01:19:30",1395450,6.391,115.9,7.141,1.38,7.557,100.7916,1.319,2.58,42.26,0,109.7,13.29,2.08,77.9
"2016-02-22 01:20:00",1395451,5.665,113.7,6.923,1.355,6.957,100.7843,1.3,2.584,42.27,0,109.7,13.29,2.06,75.7
"2016-02-22 01:20:30",1395452,5.489,111.9,6.724,1.29,6.281,100.7883,1.311,2.43,42.19,0,109.7,13.29,2.07,73.9
"2016-02-22 01:21:00",1395453,5.278,110.8,5.745,1.205,5.671,100.786,1.305,2.426,42.15,0,109.7,13.29,2.06,72.8
"2016-02-22 01:21:30",1395454,6.57,117.1,6.69,1.309,8.13,100.7834,1.298,2.584,42.36,0,109.7,13.29,2.05,79.1
"2016-02-22 01:22:00",1395455,6.613,117.9,6.681,1.344,8.05,100.7809,1.292,2.571,42.36,0,109.7,13.29,2.05,79.9
"2016-02-22 01:22:30",1395456,6.693,119.2,6.634,1.341,8.25,100.7801,1.29,2.579,42.44,0,109.7,13.29,2.05,81.2
"2016-02-22 01:23:00",1395457,6.394,116.1,7.155,1.389,7.051,100.7778,1.284,2.528,42.41,0,109.7,13.29,2.04,78.1
"2016-02-22 01:23:30",1395458,6.417,115.6,7.034,1.365,6.99,100.7727,1.271,2.473,42.4,0,109.7,13.3,2.03,77.6
"2016-02-22 01:24:00",1395459,5.728,112.3,6.422,1.268,6.105,100.7741,1.275,2.415,42.36,0,109.7,13.3,2.03,74.3
"2016-02-22 01:24:30",1395460,6.645,118.8,6.723,1.305,8.27,100.7744,1.275,2.553,42.46,0,109.7,13.3,2.03,80.8
"2016-02-22 01:25:00",1395461,5.731,117.9,6.846,1.36,7.237,100.7738,1.274,2.484,42.38,0,109.7,13.31,2.03,79.9
"2016-02-22 01:25:30",1395462,6.259,122.4,6.811,1.342,8.07,100.7747,1.276,2.556,42.42,0,109.7,13.31,2.03,84.4
"2016-02-22 01:26:00",1395463,5.451,119.8,6.726,1.295,6.611,100.7753,1.278,2.436,42.33,0,109.7,13.31,2.03,81.8
"2016-02-22 01:26:30",1395464,5.645,118.6,7.775,1.329,6.944,100.7773,1.283,2.549,42.46,0,109.7,13.31,2.04,80.6
"2016-02-22 01:27:00",1395465,6.12,117,7.175,1.325,7.377,100.7787,1.286,2.489,42.42,0,109.7,13.31,2.04,79.0
"2016-02-22 01:27:30",1395466,5.82,114.6,6.887,1.344,6.869,100.7793,1.288,2.501,42.39,0,109.7,13.31,2.04,76.6
"2016-02-22 01:28:00",1395467,6.007,114.8,6.937,1.378,6.76,100.7781,1.285,2.466,42.37,0,109.7,13.31,2.04,76.8
"2016-02-22 01:28:30",1395468,6.107,115.7,7.297,1.399,7.445,100.779,1.287,2.527,42.44,0,109.7,13.31,2.04,77.7
"2016-02-22 01:29:00",1395469,6.6,115.4,7.082,1.325,7.782,100.7801,1.29,2.465,42.41,0,109.7,13.31,2.05,77.4
"2016-02-22 01:29:30",1395470,6.466,116.6,7.354,1.38,7.411,100.7801,1.29,2.47,42.44,0,109.7,13.31,2.05,78.6
"2016-02-22 01:30:00",1395471,6.047,114.5,6.968,1.377,6.999,100.7801,1.29,2.459,42.45,0,109.7,13.31,2.05,76.5
"2016-02-22 01:30:30",1395472,5.907,114.8,7.133,1.381,7.195,100.7807,1.291,2.485,42.52,0,109.7,13.31,2.05,76.8
"2016-02-22 01:31:00",1395473,6.296,114.2,7.268,1.353,7.428,100.781,1.292,2.481,42.49,0,109.7,13.31,2.05,76.2
"2016-02-22 01:31:30",1395474,5.81,113.1,6.768,1.355,6.762,100.781,1.292,2.455,42.44,0,109.7,13.31,2.05,75.1
"2016-02-22 01:32:00",1395475,6.586,119.5,6.923,1.302,7.862,100.781,1.292,2.533,42.48,0,109.7,13.31,2.05,81.5
"2016-02-22 01:32:30",1395476,6.235,119.5,7.325,1.363,7.1,100.781,1.292,2.451,42.5,0,109.7,13.31,2.05,81.5
"2016-02-22 01:33:00",1395477,6.251,120.2,7.259,1.401,7.162,100.781,1.292,2.465,42.55,0,109.7,13.31,2.05,82.2
"2016-02-22 01:33:30",1395478,5.924,119.2,6.671,1.311,6.394,100.781,1.292,2.439,42.54,0,109.7,13.31,2.05,81.2
"2016-02-22 01:34:00",1395479,6.466,121.5,7.133,1.375,7.374,100.781,1.292,2.549,42.79,0,109.7,13.31,2.05,83.5
"2016-02-22 01:34:30",1395480,6.801,123.7,6.901,1.317,8.21,100.781,1.292,2.549,42.82,0,109.7,13.31,2.05,85.7
"2016-02-22 01:35:00",1395481,6.965,124.6,6.776,1.297,8.26,100.781,1.292,2.535,42.86,0,109.7,13.31,2.05,86.6
"2016-02-22 01:35:30",1395482,6.447,123.1,7.121,1.349,7.653,100.781,1.292,2.549,42.91,0,109.7,13.3,2.05,85.1
"2016-02-22 01:36:00",1395483,6.314,123.8,7.267,1.349,7.403,100.7815,1.293,2.521,42.91,0,109.7,13.3,2.05,85.8
"2016-02-22 01:36:30",1395484,6.381,124.1,6.837,1.343,7.004,100.7821,1.295,2.487,42.9,0,109.7,13.3,2.05,86.1
"2016-02-22 01:37:00",1395485,6.464,124.7,6.883,1.401,7.139,100.7864,1.306,2.507,42.89,0,109.7,13.3,2.06,86.7
"2016-02-22 01:37:30",1395486,7.201,129.8,6.859,1.254,8.33,100.7917,1.319,2.55,42.94,0,109.7,13.3,2.08,91.8
"2016-02-22 01:38:00",1395487,6.922,130.1,6.623,1.367,7.901,100.7971,1.333,2.569,43,0,109.7,13.3,2.09,92.1
"2016-02-22 01:38:30",1395488,6.499,129.1,7.068,1.412,7.311,100.7985,1.337,2.497,42.96,0,109.7,13.31,2.09,91.1
"2016-02-22 01:39:00",1395489,6.339,129.6,7.089,1.384,7.615,100.8002,1.341,2.532,43.03,0,109.7,13.3,2.10,91.6
"2016-02-22 01:39:30",1395490,5.762,128.6,6.415,1.286,6.693,100.8067,1.358,2.496,43.07,0,109.7,13.3,2.11,90.6
"2016-02-22 01:40:00",1395491,6.773,135,6.57,1.282,8.44,100.8124,1.372,2.56,43.17,0,109.7,13.31,2.13,97.0
"2016-02-22 01:40:30",1395492,6.61,134.2,7.076,1.36,8.44,100.8147,1.378,2.599,43.23,0,109.8,13.31,2.13,96.2
"2016-02-22 01:41:00",1395493,6.643,133.9,7.002,1.295,8.59,100.8149,1.379,2.616,43.2,0,109.7,13.31,2.14,95.9
"2016-02-22 01:41:30",1395494,6.092,131.4,7.005,1.376,7.349,100.8149,1.379,2.551,43.07,0,109.7,13.31,2.14,93.4
"2016-02-22 01:42:00",1395495,6.18,133.8,7.196,1.391,7.527,100.8149,1.379,2.567,42.99,0,109.7,13.31,2.14,95.8
"2016-02-22 01:42:30",1395496,5.691,129.3,5.761,1.225,6.69,100.8152,1.379,2.563,42.97,0,109.7,13.31,2.14,91.3
"2016-02-22 01:43:00",1395497,6.347,134.4,6.926,1.386,8.29,100.8203,1.392,2.611,42.97,0,109.7,13.31,2.15,96.4
"2016-02-22 01:43:30",1395498,6.47,133.8,7.035,1.358,7.936,100.8282,1.413,2.625,42.92,0,109.7,13.31,2.17,95.8
"2016-02-22 01:44:00",1395499,6.715,134.1,6.874,1.334,8.11,100.8319,1.422,2.66,42.89,0,109.7,13.31,2.18,96.1
"2016-02-22 01:44:30",1395500,7.025,136,6.506,1.313,8.32,100.8328,1.424,2.671,42.86,0,109.7,13.31,2.18,98.0
"2016-02-22 01:45:00",1395501,6.661,133.4,7.394,1.402,7.714,100.8367,1.434,2.585,42.76,0,109.7,13.31,2.19,95.4
"2016-02-22 01:45:30",1395502,5.863,130.1,6.499,1.232,6.5,100.8464,1.459,2.611,42.87,0,109.7,13.31,2.22,92.1
"2016-02-22 01:46:00",1395503,6.472,131.9,7.122,1.34,7.31,100.8492,1.466,2.594,42.75,0,109.7,13.31,2.22,93.9
"2016-02-22 01:46:30",1395504,6.785,134.2,6.773,1.331,8.19,100.8503,1.469,2.666,42.75,0,109.7,13.31,2.23,96.2
"2016-02-22 01:47:00",1395505,6.48,133.1,7.22,1.347,8.23,100.8503,1.469,2.652,42.75,0,109.7,13.31,2.23,95.1
"2016-02-22 01:47:30",1395506,6.709,134,6.552,1.351,8.72,100.8515,1.472,2.705,42.8,0,109.7,13.31,2.23,96.0
"2016-02-22 01:48:00",1395507,6.135,132.1,7.219,1.333,7.997,100.8529,1.475,2.648,42.77,0,109.7,13.31,2.23,94.1
"2016-02-22 01:48:30",1395508,6.831,134,6.623,1.266,8.53,100.8518,1.473,2.678,42.85,0,109.7,13.31,2.23,96.0
"2016-02-22 01:49:00",1395509,6.018,132.3,7.195,1.33,7.779,100.8535,1.477,2.683,42.88,0,109.7,13.31,2.23,94.3